Dubuque, IA

5:17 AM CDT on August 20, 2019 (GMT -0500)
Dubuque Regional

Weather History for KDBQ - June, 2019

Change the Weather History Date:

Wednesday, June 5, 2019

  Actual Average Record
Temperature  
Mean Temperature 72 °F 65 °F  
Max Temperature 82 °F 76 °F 95 °F (1933)
Min Temperature 61 °F 55 °F 40 °F (1882)
Degree Days  
Heating Degree Days 0 2  
Month to date heating degree days 5 14  
Since 1 June heating degree days 5 14  
Since 1 July heating degree days 7407 7060  
Cooling Degree Days 6 3  
Month to date cooling degree days 12 13  
Year to date cooling degree days 38 50  
Since 1 June cooling degree days 12 13  
Growing Degree Days 22 (Base 50)    
Moisture  
Dew Point 63 °F    
Average Humidity 83    
Maximum Humidity 100    
Minimum Humidity 55    
Precipitation  
Precipitation 0.80 in 0.15 in 1.19 in (1930)
Month to date precipitation 2.03 0.74  
Year to date precipitation 19.27 13.61  
Snow  
Snow 0.00 in 0.00 in - ()
Month to date snowfall 0.0 0.0  
Since 1 June snowfall 0.0 0.0  
Since 1 July snowfall 55.2 41.9  
Snow Depth 0.00 in    
Sea Level Pressure  
Sea Level Pressure 29.76 in    
Wind  
Wind Speed 6 mph ()    
Max Wind Speed 22 mph    
Max Gust Speed 31 mph    
Visibility 8.6 miles    
Events Rain , Thunderstorm    
T = Trace of Precipitation, MM = Missing Value Source: Averaged Metar Reports

Daily Weather History Graph

Daily Weather History Graph

Search for Another Location

Airport or City:

Astronomy

Jun. 05, 2019 Rise Set
Actual Time 5:26 AM CDT 8:36 PM CDT
Civil Twilight 4:52 AM CDT 9:10 PM CDT
Nautical Twilight 4:08 AM CDT 9:54 PM CDT
Astronomical Twilight 3:16 AM CDT 10:47 PM CDT
Moon 7:32 AM CDT (6/5) 11:02 PM CDT (6/5)
Length of Visible Light 16h 17m
Length of Day
15h 09m
Waxing Crescent, 7% of the Moon is Illuminated
Jun 5
Waxing Crescent
Jun 10
First Quarter
Jun 17
Full
Jun 25
Last Quarter
Jul 2
New

Hourly Weather History & Observations

Time (CDT) Temp. Heat Index Dew Point Humidity Pressure Visibility Wind Dir Wind Speed Gust Speed Precip Events Conditions
12:43 AM 66.9 °F - 64.0 °F 90% 29.74 in 10.0 mi Variable 4.6 mph - N/A Thunderstorm Scattered Clouds
12:53 AM 66.9 °F - 62.1 °F 84% 29.72 in 8.0 mi North - - N/A Thunderstorm Thunderstorm
1:05 AM 64.9 °F - 62.1 °F 90% 29.77 in 1.8 mi West 11.5 mph 31.1 mph 0.07 in Rain , Thunderstorm Heavy Thunderstorms and Rain
1:18 AM 64.0 °F - 62.1 °F 93% 29.77 in 1.2 mi WSW 3.5 mph 18.4 mph 0.33 in Rain , Thunderstorm Heavy Thunderstorms and Rain
1:28 AM 64.0 °F - 62.1 °F 93% 29.77 in 3.0 mi South 4.6 mph - 0.39 in Rain , Thunderstorm Thunderstorms and Rain
1:43 AM 64.0 °F - 62.1 °F 93% 29.74 in 6.0 mi South 4.6 mph - 0.44 in Rain , Thunderstorm Light Rain
1:53 AM 63.0 °F - 62.1 °F 97% 29.73 in 10.0 mi SW 6.9 mph - 0.44 in Thunderstorm Thunderstorm
2:07 AM 64.0 °F - 62.1 °F 93% 29.73 in 7.0 mi SE 3.5 mph - 0.01 in Rain , Thunderstorm Light Rain
2:24 AM 63.0 °F - 62.1 °F 97% 29.73 in 10.0 mi East 3.5 mph - 0.01 in   Overcast
2:53 AM 63.0 °F - 61.0 °F 93% 29.77 in 1.2 mi NW 10.4 mph 21.9 mph 0.11 in Rain , Thunderstorm Heavy Thunderstorms and Rain
3:06 AM 63.0 °F - 62.1 °F 97% 29.75 in 3.0 mi East 5.8 mph - 0.22 in Rain , Thunderstorm Rain
3:26 AM 63.0 °F - 62.1 °F 97% 29.79 in 10.0 mi West 10.4 mph - 0.25 in Rain Light Rain
3:53 AM 63.0 °F - 62.1 °F 97% 29.77 in 10.0 mi SW 6.9 mph - 0.25 in   Overcast
4:53 AM 63.0 °F - 60.1 °F 90% 29.68 in 10.0 mi South 6.9 mph - 0.00 in   Partly Cloudy
5:53 AM 61.0 °F - 60.1 °F 97% 29.71 in 10.0 mi West 4.6 mph - N/A   Clear
6:53 AM 63.0 °F - 62.1 °F 97% 29.73 in 10.0 mi SW 4.6 mph - N/A   Scattered Clouds
7:20 AM 64.9 °F - 63.0 °F 93% 29.75 in 10.0 mi WSW 8.1 mph - N/A   Partly Cloudy
7:53 AM 64.9 °F - 63.0 °F 93% 29.75 in 10.0 mi SW 11.5 mph - N/A   Clear
8:06 AM 64.9 °F - 63.0 °F 93% 29.76 in 10.0 mi SW 10.4 mph - N/A   Scattered Clouds
8:53 AM 64.0 °F - 62.1 °F 93% 29.76 in 10.0 mi SW 10.4 mph - N/A   Clear
9:53 AM 66.0 °F - 63.0 °F 90% 29.77 in 10.0 mi West 9.2 mph - N/A   Clear
10:25 AM 68.0 °F - 63.0 °F 84% 29.79 in 10.0 mi West 13.8 mph - N/A   Partly Cloudy
10:53 AM 70.0 °F - 63.0 °F 78% 29.76 in 10.0 mi WNW 8.1 mph - N/A   Clear
11:53 AM 75.0 °F - 64.9 °F 71% 29.76 in 10.0 mi NW 13.8 mph - N/A   Partly Cloudy
12:53 PM 77.0 °F - 64.9 °F 66% 29.76 in 10.0 mi WNW 8.1 mph - N/A   Clear
1:53 PM 78.1 °F - 66.0 °F 66% 29.78 in 10.0 mi NNW 12.7 mph - N/A   Clear
2:53 PM 80.1 °F 82.1 °F 66.0 °F 62% 29.78 in 10.0 mi North 12.7 mph - N/A   Clear
3:53 PM 81.0 °F 83.0 °F 66.0 °F 60% 29.78 in 10.0 mi NW 10.4 mph - N/A   Clear
4:53 PM 82.0 °F 83.8 °F 64.9 °F 56% 29.77 in 10.0 mi NNW 11.5 mph - N/A   Clear
5:53 PM 81.0 °F 82.7 °F 64.9 °F 58% 29.75 in 10.0 mi NNW 9.2 mph - N/A   Clear
6:53 PM 81.0 °F 82.7 °F 64.9 °F 58% 29.77 in 10.0 mi NNW 6.9 mph - N/A   Clear
7:53 PM 78.1 °F - 64.0 °F 62% 29.78 in 10.0 mi North 3.5 mph - N/A   Clear
8:53 PM 72.0 °F - 64.0 °F 76% 29.79 in 10.0 mi NNW 5.8 mph - N/A   Clear
9:53 PM 73.0 °F - 63.0 °F 71% 29.82 in 10.0 mi Calm Calm - N/A   Clear
10:53 PM 70.0 °F - 63.0 °F 78% 29.82 in 10.0 mi North 3.5 mph - N/A   Clear
11:53 PM 70.0 °F - 63.0 °F 78% 29.82 in 10.0 mi North 3.5 mph - N/A   Clear